TimeCDT,TemperatureF,Dew PointF,Humidity,Sea Level PressureIn,VisibilityMPH,Wind Direction,Wind SpeedMPH,Gust SpeedMPH,PrecipitationIn,Events,Conditions,WindDirDegrees,DateUTC
12:15 AM,75.6,68.2,78,29.78,7.0,SSE,15.0,21.9,N/A,,Mostly Cloudy,150,2013-04-16 05:15:00
12:35 AM,75.2,68.2,79,29.78,7.0,SE,10.4,19.6,N/A,,Scattered Clouds,140,2013-04-16 05:35:00
12:55 AM,74.8,68.4,80,29.78,7.0,SSE,11.5,-,N/A,,Scattered Clouds,150,2013-04-16 05:55:00
1:15 AM,74.5,68.4,81,29.78,7.0,SE,9.2,-,N/A,,Mostly Cloudy,140,2013-04-16 06:15:00
1:35 AM,74.3,68.2,81,29.78,7.0,SE,9.2,-,N/A,,Scattered Clouds,140,2013-04-16 06:35:00
1:55 AM,73.9,68.4,83,29.78,5.0,SE,5.8,-,N/A,,Haze,140,2013-04-16 06:55:00
2:15 AM,73.4,68.4,84,29.77,5.0,SE,5.8,-,N/A,,Haze,140,2013-04-16 07:15:00
2:35 AM,73.4,68.9,86,29.76,5.0,SE,6.9,-,N/A,,Mostly Cloudy,140,2013-04-16 07:35:00
2:55 AM,73.4,68.9,86,29.76,5.0,SE,6.9,-,N/A,,Overcast,140,2013-04-16 07:55:00
3:15 AM,73.6,68.9,85,29.75,5.0,SSE,9.2,-,N/A,,Haze,150,2013-04-16 08:15:00
3:35 AM,73.4,68.7,85,29.75,5.0,SSE,6.9,-,N/A,,Mostly Cloudy,150,2013-04-16 08:35:00
3:55 AM,72.9,68.5,86,29.75,5.0,SE,6.9,-,N/A,,Scattered Clouds,140,2013-04-16 08:55:00
4:15 AM,72.7,68.5,87,29.73,5.0,ESE,8.1,-,N/A,,Scattered Clouds,120,2013-04-16 09:15:00
4:35 AM,72.5,68.7,88,29.75,5.0,SSE,6.9,-,N/A,,Scattered Clouds,150,2013-04-16 09:35:00
4:55 AM,72.3,68.4,87,29.74,5.0,SSE,8.1,-,N/A,,Scattered Clouds,150,2013-04-16 09:55:00
5:15 AM,72.0,68.4,88,29.75,4.0,SE,8.1,-,N/A,,Scattered Clouds,140,2013-04-16 10:15:00
5:35 AM,72.0,68.4,88,29.74,4.0,SSE,10.4,-,N/A,,Clear,150,2013-04-16 10:35:00
5:55 AM,71.8,68.4,89,29.75,4.0,SSE,8.1,-,N/A,,Clear,150,2013-04-16 10:55:00
6:15 AM,71.6,68.2,89,29.76,4.0,SE,6.9,-,N/A,,Clear,140,2013-04-16 11:15:00
6:35 AM,71.6,68.2,89,29.76,4.0,SE,6.9,-,N/A,,Clear,140,2013-04-16 11:35:00
7:15 AM,71.6,68.4,89,29.77,4.0,SSE,6.9,-,N/A,,Scattered Clouds,150,2013-04-16 12:15:00
7:35 AM,72.0,68.9,90,29.77,2.5,SSE,8.1,-,N/A,,Scattered Clouds,150,2013-04-16 12:35:00
7:55 AM,72.9,69.1,88,29.78,3.0,SE,8.1,-,N/A,,Scattered Clouds,140,2013-04-16 12:55:00
8:15 AM,74.3,69.3,84,29.78,4.0,SSE,11.5,-,N/A,,Haze,150,2013-04-16 13:15:00
8:35 AM,74.5,69.3,84,29.78,5.0,SSE,8.1,17.3,N/A,,Haze,150,2013-04-16 13:35:00
8:55 AM,76.8,69.6,78,29.78,5.0,SSE,13.8,17.3,N/A,,Haze,160,2013-04-16 13:55:00
9:15 AM,79.0,69.1,72,29.79,7.0,South,13.8,19.6,N/A,,Clear,170,2013-04-16 14:15:00
9:35 AM,80.1,68.5,68,29.78,7.0,SSE,15.0,23.0,N/A,,Clear,160,2013-04-16 14:35:00
9:55 AM,79.7,68.2,68,29.78,7.0,SSE,18.4,21.9,N/A,,Clear,160,2013-04-16 14:55:00
10:15 AM,80.6,68.0,65,29.80,7.0,South,15.0,18.4,N/A,,Clear,170,2013-04-16 15:15:00
10:35 AM,82.0,68.0,62,29.80,7.0,SSE,16.1,24.2,N/A,,Clear,160,2013-04-16 15:35:00
10:55 AM,84.2,68.0,58,29.80,7.0,SSE,18.4,25.3,N/A,,Clear,160,2013-04-16 15:55:00
11:15 AM,84.2,67.8,58,29.78,7.0,SE,18.4,24.2,N/A,,Clear,140,2013-04-16 16:15:00
11:35 AM,85.8,68.2,55,29.79,7.0,SSE,17.3,26.5,N/A,,Clear,150,2013-04-16 16:35:00
11:55 AM,86.7,67.6,53,29.80,10.0,SSE,18.4,28.8,N/A,,Clear,160,2013-04-16 16:55:00
12:15 PM,88.5,67.1,49,29.80,10.0,SSE,20.7,27.6,N/A,,Clear,160,2013-04-16 17:15:00
12:35 PM,88.3,66.6,48,29.80,10.0,SSE,19.6,24.2,N/A,,Clear,160,2013-04-16 17:35:00
12:55 PM,89.6,66.0,46,29.80,10.0,SSE,15.0,26.5,N/A,,Clear,160,2013-04-16 17:55:00
1:15 PM,89.2,66.9,48,29.78,7.0,SE,17.3,24.2,N/A,,Clear,140,2013-04-16 18:15:00
1:35 PM,88.3,66.4,48,29.77,10.0,SSE,17.3,24.2,N/A,,Clear,150,2013-04-16 18:35:00
1:55 PM,90.3,65.8,44,29.75,10.0,SE,15.0,27.6,N/A,,Clear,140,2013-04-16 18:55:00
2:15 PM,90.9,65.8,43,29.74,10.0,SE,17.3,28.8,N/A,,Clear,140,2013-04-16 19:15:00
2:35 PM,91.9,64.0,39,29.74,10.0,SE,17.3,28.8,N/A,,Clear,130,2013-04-16 19:35:00
2:55 PM,94.1,61.9,34,29.74,10.0,SE,17.3,25.3,N/A,,Clear,140,2013-04-16 19:55:00
3:15 PM,93.2,62.8,36,29.74,10.0,SSE,19.6,27.6,N/A,,Clear,150,2013-04-16 20:15:00
3:35 PM,93.7,66.6,41,29.73,10.0,SSE,18.4,28.8,N/A,,Clear,160,2013-04-16 20:35:00
3:55 PM,91.0,67.8,46,29.73,10.0,SSE,18.4,29.9,N/A,,Clear,150,2013-04-16 20:55:00
4:15 PM,88.9,69.1,52,29.72,10.0,SE,15.0,27.6,N/A,,Clear,140,2013-04-16 21:15:00
4:35 PM,90.7,68.9,49,29.73,10.0,SSE,17.3,21.9,N/A,,Clear,150,2013-04-16 21:35:00
4:55 PM,89.1,69.4,52,29.74,10.0,SE,13.8,23.0,N/A,,Clear,140,2013-04-16 21:55:00
5:15 PM,88.0,70.0,55,29.73,10.0,SE,11.5,18.4,N/A,,Clear,130,2013-04-16 22:15:00
5:35 PM,87.1,70.2,57,29.73,10.0,SE,10.4,18.4,N/A,,Clear,130,2013-04-16 22:35:00
5:55 PM,86.4,70.7,59,29.73,10.0,SE,12.7,21.9,N/A,,Clear,130,2013-04-16 22:55:00
6:15 PM,85.3,70.9,62,29.73,7.0,ESE,13.8,18.4,N/A,,Clear,120,2013-04-16 23:15:00
6:35 PM,84.6,71.1,64,29.73,7.0,ESE,17.3,21.9,N/A,,Clear,120,2013-04-16 23:35:00
7:15 PM,82.6,71.4,69,29.76,7.0,SE,12.7,19.6,N/A,,Scattered Clouds,130,2013-04-17 00:15:00
7:35 PM,82.4,71.4,69,29.78,10.0,SE,9.2,16.1,N/A,,Mostly Cloudy,140,2013-04-17 00:35:00
7:55 PM,81.7,71.6,71,29.69,7.0,ESE,24.2,35.7,N/A,,Scattered Clouds,120,2013-04-17 00:55:00
8:15 PM,80.6,71.6,74,29.67,7.0,SE,25.3,38.0,N/A,,Clear,130,2013-04-17 01:15:00
8:35 PM,79.9,71.6,76,29.73,7.0,SSE,10.4,28.8,N/A,,Scattered Clouds,150,2013-04-17 01:35:00
8:55 PM,79.9,72.0,77,29.78,7.0,SSE,11.5,17.3,N/A,,Mostly Cloudy,160,2013-04-17 01:55:00
9:15 PM,79.7,72.0,77,29.78,7.0,SSE,12.7,23.0,N/A,,Overcast,150,2013-04-17 02:15:00
9:35 PM,79.3,72.1,79,29.80,7.0,SSE,12.7,17.3,N/A,,Overcast,160,2013-04-17 02:35:00
9:55 PM,79.3,72.1,79,29.81,7.0,SSE,16.1,20.7,N/A,,Overcast,160,2013-04-17 02:55:00
10:15 PM,79.3,72.1,79,29.82,7.0,SSE,16.1,21.9,N/A,,Overcast,150,2013-04-17 03:15:00
10:35 PM,79.2,72.3,79,29.83,7.0,SSE,10.4,-,N/A,,Overcast,150,2013-04-17 03:35:00
10:55 PM,79.0,72.1,79,29.83,7.0,SSE,13.8,21.9,N/A,,Overcast,160,2013-04-17 03:55:00
11:15 PM,79.0,72.5,80,29.83,7.0,SSE,12.7,19.6,N/A,,Overcast,150,2013-04-17 04:15:00
11:35 PM,78.8,72.5,81,29.83,7.0,SSE,13.8,20.7,N/A,,Overcast,160,2013-04-17 04:35:00
11:55 PM,78.8,72.5,81,29.83,7.0,SSE,18.4,24.2,N/A,,Overcast,150,2013-04-17 04:55:00